Zurück zum Katalog

FLOCK 4BE 23

AktivWissenschaftSSO
NORAD 60490·PAYLOAD·🇺🇸 United States

Gestartet Aug 16, 2024 von Vandenberg Space Force Base

Loading…

Nächste Überflüge (nächste 24 Stunden)

TLE

AktuellSource: CelesTrak SupGP

Epoche: Sep 14, 2026, 16:45 UTC

1 60490C 24149BE  26257.69804398  .00030414  00000+0  76266-3 0  2576
2 60490  97.3731 340.6458 0002085 325.4760 289.1991 15.40053562    14

Verfolge FLOCK 4BE 23 in Echtzeit mit AllMySat

Download on the App Store